"Pseudo-MPEC" for A11FvJs

Created 2026 Aug 9 11:35:05 UT using Find_Orb

Click here for an explanation of pseudo-MPECs

 
 Astrometry: 
     A11FvJs*0C2026 08 08.92723119 29 33.725-12 27 16.16   ~890K 19.10oVNEOCPM22
     A11FvJs 0C2026 08 08.93038419 29 33.938-12 27 20.66   ~890K 19.10oVNEOCPM22
     A11FvJs 0C2026 08 08.93718619 29 34.308-12 27 32.00   ~890K 19.36oVNEOCPM22
     A11FvJs 0C2026 08 08.96068919 29 35.695-12 28 08.83   ~890K 19.26oVNEOCPM22
     A11FvJs KB2026 08 09.07324719 29 43.666-12 31 12.84   ~89A5 19.9 VZNEOCPY05
     A11FvJs 0C2026 08 09.07609419 29 44.419-12 31 36.07   ~892o 19.5 GWNEOCPW27
     A11FvJs 0C2026 08 09.08363419 29 44.879-12 31 48.53   ~892o 19.5 GWNEOCPW27
     A11FvJs KB2026 08 09.08781319 29 44.544-12 31 35.70   ~89A5 18.8 VZNEOCPY05
     A11FvJs 0C2026 08 09.09117519 29 45.335-12 32 00.53   ~892o 19.3 GWNEOCPW27
     A11FvJs KB2026 08 09.10239019 29 45.360-12 31 58.80   ~89A5 19.6 VZNEOCPY05
     A11FvJs KB2026 08 09.13693319 29 48.490-12 33 12.49   ~8945 18.5 GXNEOCP734
     A11FvJs KB2026 08 09.14414419 29 48.943-12 33 24.70   ~8945 19.0 GXNEOCP734

Station data:
(734) Farpoint Observatory, Eskridge  (N38.890239 W96.002420)  US/Kansas.
   Observer G. Hug. 0.69-m reflector + CCD.
(M22) ATLAS South Africa, Sutherland  (S32.380156 E20.810590)  South Africa.
   Observers L. Denneau, R. Siverd, J. Tonry, H. Weiland. Measurers L.
   Denneau, N. Erasmus, A. Fitzsimmons, J. Robinson, R. Siverd, J. Tonry, H.
   Weiland. 0.5-m f/2.0 Schmidt + CCD.
(W27) RCNS, New Milford  (N41.525582 W73.426170)  US/Connecticut.
(Y05) SONEAR Wykrota-CEAMIG, Serra da Piedade  (S19.824251 W43.690000)
   Brazil.  Observer C. Jacques. 0.45-m f/2.9 reflector + CMO.

Orbital elements:  A11FvJs
   Perihelion 2026 Jun 3.027448 +/- 40.2 TT =  0:39:31.4 (JD 2461194.527448)
Epoch 2026 Aug  9.0 TT = JDT 2461261.5   Earth MOID: 0.2673   Ma: 0.0868
M  19.248003546 +/- 8               (J2000 ecliptic)             AutoNEOCP
n   0.287401374 +/- 0.115           Peri.  109.683450 +/- 33
a   2.274103127 +/- 0.605           Node   145.612585 +/- 1.1
e   0.46266348 +/- 0.144            Incl.    9.647548 +/- 0.9
P   3.42938                H 19.68  G  0.15   U 11.3  SR
q 1.221958650 +/- 0.0864    Q 3.326247604 +/- 4.64
From 12 observations 2026 Aug. 8-9 (5.2 hr); mean residual 0".26
Residuals in arcseconds: 
260808 M22  .00   .25-    260809 Y05  .07-  .08-    260809 W27  .08+  .16+    
260808 M22  .38+  .25+    260809 W27  .04-  .60+    260809 Y05  .17-  .02+    
260808 M22  .12-  .31-    260809 W27  .04+  .15+    260809 734  .19-  .03+    
260808 M22  .37-  .02+    260809 Y05  .36+  .10+    260809 734  .10+  .71-    

Ephemerides (geocentric):
Date (UTC) HH   RA             Dec           delta  r     elong  mag " sig PA
---- --------  ------------   ------------  ------ ------ -----  --- --------
2026 08 09 12  19 30 12.339   -12 42 28.79  .42165 1.4054 154.2 19.5 4.69  27
2026 08 09 13  19 30 15.128   -12 43 34.12  .42193 1.4056 154.2 19.5 5.30  27
2026 08 09 14  19 30 17.918   -12 44 39.37  .42220 1.4058 154.1 19.5 5.96  28
2026 08 09 15  19 30 20.709   -12 45 44.54  .42248 1.4060 154.1 19.5 6.67  28
2026 08 09 16  19 30 23.502   -12 46 49.64  .42275 1.4062 154.1 19.5 7.44  28
2026 08 09 17  19 30 26.296   -12 47 54.67  .42303 1.4064 154.1 19.5 8.25  29
2026 08 09 18  19 30 29.091   -12 48 59.62  .42330 1.4066 154.0 19.5 9.12  29
2026 08 09 19  19 30 31.887   -12 50 04.50  .42358 1.4068 154.0 19.5 10.0  29
2026 08 09 20  19 30 34.684   -12 51 09.30  .42385 1.4070 154.0 19.5 11.0  30
2026 08 09 21  19 30 37.483   -12 52 14.03  .42413 1.4072 154.0 19.5 12.0  30
2026 08 09 22  19 30 40.283   -12 53 18.68  .42441 1.4074 153.9 19.5 13.1  30
2026 08 09 23  19 30 43.084   -12 54 23.26  .42468 1.4076 153.9 19.5 14.3  30
2026 08 10 00  19 30 45.886   -12 55 27.76  .42496 1.4078 153.9 19.5 15.5  31
2026 08 10 01  19 30 48.690   -12 56 32.19  .42524 1.4080 153.9 19.5 16.7  31
2026 08 10 02  19 30 51.495   -12 57 36.55  .42552 1.4082 153.9 19.5 18.0  31
2026 08 10 03  19 30 54.301   -12 58 40.83  .42579 1.4084 153.8 19.5 19.4  31
2026 08 10 04  19 30 57.108   -12 59 45.03  .42607 1.4086 153.8 19.5 20.8  31
2026 08 10 05  19 30 59.917   -13 00 49.17  .42635 1.4088 153.8 19.5 22.3  31
2026 08 10 06  19 31 02.726   -13 01 53.22  .42663 1.4090 153.8 19.5 23.8  31
2026 08 10 07  19 31 05.537   -13 02 57.20  .42691 1.4093 153.7 19.5 25.4  31
2026 08 10 08  19 31 08.350   -13 04 01.11  .42719 1.4095 153.7 19.5 27.0  31
2026 08 10 09  19 31 11.163   -13 05 04.94  .42747 1.4097 153.7 19.5 28.7  32
2026 08 10 10  19 31 13.978   -13 06 08.70  .42775 1.4099 153.7 19.5 30.4  32
2026 08 10 11  19 31 16.794   -13 07 12.38  .42802 1.4101 153.6 19.5 32.2  32
2026 08 10 12  19 31 19.612   -13 08 15.99  .42831 1.4103 153.6 19.5 34.1  32
2026 08 10 13  19 31 22.430   -13 09 19.53  .42859 1.4105 153.6 19.5 36.0  32
2026 08 10 14  19 31 25.250   -13 10 22.98  .42887 1.4107 153.6 19.5 37.9  32
2026 08 10 15  19 31 28.071   -13 11 26.37  .42915 1.4109 153.5 19.6 39.9  32
2026 08 10 16  19 31 30.894   -13 12 29.68  .42943 1.4111 153.5 19.6 42.0  32
2026 08 10 17  19 31 33.717   -13 13 32.91  .42971 1.4113 153.5 19.6 44.1  32
2026 08 10 18  19 31 36.542   -13 14 36.07  .42999 1.4115 153.5 19.6 46.3  32
2026 08 10 19  19 31 39.369   -13 15 39.16  .43027 1.4117 153.5 19.6 48.6  32
2026 08 10 20  19 31 42.196   -13 16 42.17  .43056 1.4119 153.4 19.6 50.8  32
2026 08 10 21  19 31 45.025   -13 17 45.11  .43084 1.4121 153.4 19.6 53.2  32
2026 08 10 22  19 31 47.855   -13 18 47.97  .43112 1.4123 153.4 19.6 55.6  32
2026 08 10 23  19 31 50.686   -13 19 50.75  .43140 1.4125 153.4 19.6 58.0  32
2026 08 11 00  19 31 53.519   -13 20 53.47  .43169 1.4127 153.3 19.6 60.5  32
2026 08 11 01  19 31 56.353   -13 21 56.10  .43197 1.4129 153.3 19.6 63.1  32
2026 08 11 02  19 31 59.188   -13 22 58.66  .43226 1.4131 153.3 19.6 65.7  32
2026 08 11 03  19 32 02.025   -13 24 01.15  .43254 1.4133 153.3 19.6 68.4  32
2026 08 11 04  19 32 04.862   -13 25 03.57  .43282 1.4135 153.2 19.6 71.1  32
2026 08 11 05  19 32 07.701   -13 26 05.90  .43311 1.4137 153.2 19.6 73.9  32
2026 08 11 06  19 32 10.542   -13 27 08.17  .43339 1.4139 153.2 19.6 76.7  32
2026 08 11 07  19 32 13.383   -13 28 10.36  .43368 1.4141 153.2 19.6 79.6  33
2026 08 11 08  19 32 16.226   -13 29 12.47  .43396 1.4143 153.1 19.6 82.5  33
2026 08 11 09  19 32 19.070   -13 30 14.51  .43425 1.4145 153.1 19.6 85.5  33
2026 08 11 10  19 32 21.916   -13 31 16.47  .43454 1.4147 153.1 19.6 88.5  33
2026 08 11 11  19 32 24.763   -13 32 18.36  .43482 1.4149 153.1 19.6 91.6  33